EW0765 Weather Reports


Display with metric or nautical units.
time (UTC)temp
F
wind
direction
speed
MPH
gust
MPH
rain 1hr
in
rain 24hr
in
rain mn
in
humidity
%
barometer
mb
20260903220015 79 146 0.0 5.0 0.13 0.13 0.13 85 1012.6
20260903214518 82 320 0.0 0.0 0.07 0.07 0.07 82 1012.5
20260903213017 84 305 0.0 0.0 0.01 0.01 0.01 77 1013.1
20260903211513 85 36 0.0 0.0 0.00 0.00 0.00 72 1012.2
20260903210013 86 65 0.0 3.0 0.00 0.00 0.00 70 1011.9
20260903204512 86 71 0.0 0.0 0.00 0.00 0.00 70 1011.0
20260903203011 86 9 0.0 3.0 0.00 0.00 0.00 72 1011.4
20260903201510 85 99 1.0 7.0 0.00 0.00 0.00 72 1011.3
20260903200011 85 47 0.0 5.0 0.00 0.00 0.00 74 1011.3
20260903194507 84 84 1.0 7.0 0.00 0.00 0.00 74 1011.8
20260903193005 86 88 0.0 5.0 0.00 0.00 0.00 72 1011.8
20260903191508 91 111 3.0 11.0 0.00 0.00 0.00 64 1012.0
20260903190003 92 346 1.0 8.0 0.00 0.00 0.00 63 1012.1
20260903184502 91 225 1.0 6.0 0.00 0.00 0.00 64 1012.5
20260903183059 91 41 0.0 1.0 0.00 0.00 0.00 67 1012.4
20260903181557 90 238 0.0 6.0 0.00 0.00 0.00 68 1012.6
20260903180059 89 284 0.0 4.0 0.00 0.00 0.00 69 1012.6
20260903174554 89 283 0.0 5.0 0.00 0.00 0.00 69 1012.9
20260903173053 90 262 0.0 4.0 0.00 0.00 0.00 68 1013.2
20260903171556 89 313 0.0 7.0 0.00 0.00 0.00 70 1013.4
20260903170050 89 275 0.0 3.0 0.00 0.00 0.00 71 1013.5
20260903164548 87 277 0.0 3.0 0.00 0.00 0.00 73 1013.5
20260903163042 86 250 0.0 1.0 0.00 0.00 0.00 76 1013.8
20260903161541 86 215 0.0 3.0 0.00 0.00 0.00 75 1014.0
20260903160057 85 292 0.0 3.0 0.00 0.00 0.00 76 1013.7
20260903154538 85 286 0.0 3.0 0.00 0.00 0.00 76 1013.9
20260903153037 85 276 2.0 5.0 0.00 0.00 0.00 76 1013.7
20260903151535 84 238 0.0 4.0 0.00 0.00 0.00 77 1013.9
20260903150035 83 251 0.0 2.0 0.00 0.00 0.00 79 1014.0
20260903144531 82 242 0.0 3.0 0.00 0.00 0.00 80 1014.0
20260903143027 82 303 0.0 4.0 0.00 0.00 0.00 80 1014.0
20260903141526 81 335 1.0 5.0 0.00 0.00 0.00 80 1014.2
20260903140024 80 263 0.0 3.0 0.00 0.00 0.00 83 1013.8
20260903134524 79 5 0.0 2.0 0.00 0.00 0.00 84 1014.0
20260903133023 77 323 0.0 1.0 0.00 0.00 0.00 86 1014.1
20260903131522 76 38 0.0 0.0 0.00 0.00 0.00 88 1014.2
20260903130022 75 348 0.0 0.0 0.00 0.00 0.00 90 1014.4
20260903124521 73 348 0.0 0.0 0.00 0.00 0.00 90 1014.4
20260903123021 73 348 0.0 0.0 0.00 0.00 0.00 90 1014.3
20260903121520 72 348 0.0 0.0 0.00 0.00 0.00 90 1014.2
20260903120021 72 346 0.0 0.0 0.00 0.00 0.00 89 1014.2
20260903114518 72 347 0.0 0.0 0.00 0.00 0.00 88 1014.3
20260903113016 72 80 0.0 0.0 0.00 0.00 0.00 88 1014.6
20260903111514 73 80 0.0 0.0 0.00 0.00 0.00 87 1014.6
20260903110013 73 79 0.0 0.0 0.00 0.00 0.00 86 1014.0
20260903104510 74 88 0.0 0.0 0.00 0.00 0.00 85 1014.5
20260903103012 75 88 0.0 1.0 0.00 0.00 0.00 84 1014.6
20260903101510 75 62 0.0 8.0 0.00 0.00 0.00 83 1014.6
20260903100007 75 72 0.0 6.0 0.00 0.00 0.00 82 1014.6
20260903094506 74 250 1.0 5.0 0.00 0.00 0.00 83 1013.8
20260903093004 74 313 0.0 0.0 0.00 0.00 0.00 82 1013.4
20260903091505 74 313 0.0 0.0 0.00 0.00 0.00 82 1013.2
20260903090007 74 313 0.0 0.0 0.00 0.00 0.00 81 1013.3
20260903084503 74 313 0.0 0.0 0.00 0.00 0.00 81 1013.0
20260903083004 75 313 0.0 0.0 0.00 0.00 0.00 82 1013.0
20260903081501 75 313 0.0 0.0 0.00 0.00 0.00 81 1013.0
20260903080112 75 313 0.0 0.0 0.00 0.00 0.00 81 1013.1
20260903074622 75 313 0.0 0.0 0.00 0.00 0.00 80 1013.4
20260903073109 76 313 0.0 0.0 0.00 0.00 0.00 79 1013.5
20260903071608 76 313 0.0 0.0 0.00 0.00 0.00 78 1013.2
20260903070053 77 313 0.0 0.0 0.00 0.00 0.00 77 1013.4
20260903064551 77 313 0.0 0.0 0.00 0.00 0.00 76 1013.7
20260903063049 78 313 0.0 0.0 0.00 0.00 0.00 75 1014.1
20260903061554 78 313 0.0 2.0 0.00 0.00 0.00 74 1014.2
20260903060045 79 244 0.0 6.0 0.00 0.00 0.00 74 1014.4
20260903054543 80 292 1.0 7.0 0.00 0.00 0.00 79 1014.4
20260903053039 80 265 0.0 0.0 0.00 0.00 0.00 82 1013.5
20260903051537 80 265 0.0 0.0 0.00 0.00 0.00 81 1013.2
20260903050035 80 265 0.0 0.0 0.00 0.00 0.00 80 1012.9
20260903044533 80 223 0.0 2.0 0.00 0.00 0.00 80 1012.6
20260903043030 80 286 0.0 2.0 0.00 0.00 0.00 79 1012.6
20260903041536 81 288 0.0 0.0 0.00 0.00 0.00 79 1012.3
20260903040026 81 355 0.0 1.0 0.00 0.00 0.00 78 1012.2
20260903034530 81 251 0.0 2.0 0.00 0.00 0.00 78 1012.2
20260903033037 81 179 0.0 1.0 0.00 0.00 0.00 78 1011.7
20260903031522 81 281 0.0 0.0 0.00 0.00 0.00 78 1011.9
20260903030020 81 289 0.0 0.0 0.00 0.00 0.00 78 1012.2
20260903024519 81 289 0.0 0.0 0.00 0.00 0.00 78 1012.6
20260903023018 81 270 0.0 0.0 0.00 0.00 0.00 77 1012.8
20260903021517 82 274 0.0 0.0 0.00 0.00 0.00 78 1012.8
20260903020017 82 292 0.0 0.0 0.00 0.00 0.00 78 1012.9
20260903014517 82 259 0.0 0.0 0.00 0.00 0.00 77 1012.9
20260903013017 83 259 0.0 0.0 0.00 0.00 0.00 76 1013.0
20260903011516 83 259 0.0 0.0 0.00 0.00 0.00 75 1013.0
20260903010016 84 259 0.0 0.0 0.00 0.00 0.00 73 1012.9
20260903004531 84 259 0.0 0.0 0.00 0.00 0.00 71 1012.9
20260903003014 85 259 0.0 0.0 0.00 0.00 0.00 70 1012.7
20260903001514 85 259 0.0 0.0 0.00 0.00 0.00 69 1012.6
20260903000016 86 259 0.0 0.0 0.00 0.00 0.00 69 1012.5
20260902234513 87 259 0.0 0.0 0.00 0.00 0.00 67 1012.6
20260902233013 88 251 0.0 2.0 0.00 0.00 0.00 67 1012.6
20260902231516 88 222 0.0 0.0 0.00 0.00 0.00 66 1012.6
20260902230012 89 255 0.0 0.0 0.00 0.00 0.00 65 1012.6
20260902224512 89 257 0.0 1.0 0.00 0.00 0.00 63 1012.6
20260902223011 90 282 0.0 5.0 0.00 0.00 0.00 61 1012.5
20260902221516 91 257 0.0 5.0 0.00 0.00 0.00 60 1012.4